Weather History for Mobridge, SD

Change the Weather History Date:

Saturday, August 24, 2013

  Actual Average Record
Temperature  
Mean Temperature 86 °F 70 °F  
Max Temperature 101 °F 83 °F 102 °F (1991)
Min Temperature 71 °F 57 °F 38 °F (1928)
Degree Days  
Heating Degree Days 0 1  
Month to date heating degree days 2 7  
Since 1 June heating degree days 81 94  
Since 1 July heating degree days 13 19  
Cooling Degree Days 21 6  
Month to date cooling degree days 138 183  
Year to date cooling degree days 479 547  
Since 1 June cooling degree days 464 531  
Growing Degree Days 36 (Base 50)    
Moisture  
Dew Point 67 °F    
Average Humidity 61    
Maximum Humidity 93    
Minimum Humidity 29    
Precipitation  
Precipitation 0.00 in 0.06 in 0.95 in (1995)
Month to date precipitation 1.51 1.62  
Year to date precipitation 13.07 13.50  
Sea Level Pressure  
Sea Level Pressure 29.71 in    
Wind  
Wind Speed 11 mph (SSE)    
Max Wind Speed 16 mph    
Max Gust Speed 21 mph    
Visibility 10 miles    
Events      
T = Trace of Precipitation, MM = Missing Value Source: NWS Daily Summary

Daily Weather History Graph

Daily Weather History Graph

Search for Another Location

Airport:

Trip Planner

Search our weather history database for the weather conditions in past years. The results will help you decide how hot, cold, wet, or windy it might be!

Date:

Astronomy

Aug. 24, 2013 Rise Set
Actual Time 6:53 AM CDT 8:33 PM CDT
Civil Twilight 6:22 AM CDT 9:04 PM CDT
Nautical Twilight 5:44 AM CDT 9:42 PM CDT
Astronomical Twilight 5:02 AM CDT 10:23 PM CDT
Moon 10:12 PM CDT (8/24) 11:10 AM CDT (8/24)
Length of Visible Light 14h 42m
Length of Day
13h 39m
Waning Gibbous, 84% of the Moon is Illuminated
Aug 24
Waning Gibbous
Aug 28
Last Quarter
Sep 5
New
Sep 12
First Quarter
Sep 19
Full

Hourly Weather History & Observations

Time (CDT) Temp. Heat Index Dew Point Humidity Pressure Visibility Wind Dir Wind Speed Gust Speed Precip Events Conditions
12:52 AM 75.9 °F - 69.1 °F 79% 29.76 in 10.0 mi SSE 11.5 mph - N/A   Clear
1:52 AM 73.9 °F - 68.0 °F 82% 29.75 in 10.0 mi SSE 6.9 mph - N/A   Clear
2:52 AM 73.9 °F - 69.1 °F 85% 29.74 in 10.0 mi SSE 15.0 mph - N/A   Clear
3:52 AM 73.0 °F - 70.0 °F 90% 29.74 in 10.0 mi SSE 11.5 mph - N/A   Clear
4:52 AM 73.0 °F - 70.0 °F 90% 29.73 in 10.0 mi SSE 12.7 mph - N/A   Clear
5:52 AM 73.0 °F - 70.0 °F 90% 29.71 in 10.0 mi SSE 13.8 mph - N/A   Clear
6:52 AM 72.0 °F - 70.0 °F 93% 29.73 in 9.0 mi SSE 6.9 mph - N/A   Clear
7:52 AM 72.0 °F - 70.0 °F 93% 29.72 in 8.0 mi SSE 8.1 mph - N/A   Clear
8:52 AM 75.0 °F - 70.0 °F 84% 29.72 in 10.0 mi SSE 12.7 mph - N/A   Clear
9:52 AM 79.0 °F - 70.0 °F 74% 29.71 in 10.0 mi SSE 13.8 mph - N/A   Clear
10:52 AM 82.9 °F 87.0 °F 70.0 °F 65% 29.70 in 10.0 mi SSE 12.7 mph - N/A   Clear
11:52 AM 86.0 °F 90.7 °F 70.0 °F 59% 29.70 in 10.0 mi SSE 15.0 mph - N/A   Clear
12:52 PM 90.0 °F 94.5 °F 69.1 °F 50% 29.70 in 10.0 mi South 6.9 mph - N/A   Clear
1:52 PM 96.1 °F 99.9 °F 66.9 °F 38% 29.68 in 10.0 mi SSW 12.7 mph - N/A   Clear
2:52 PM 99.0 °F 100.5 °F 63.0 °F 30% 29.67 in 10.0 mi WSW 11.5 mph 18.4 mph N/A   Clear
3:52 PM 100.9 °F 102.7 °F 62.1 °F 28% 29.66 in 10.0 mi West 11.5 mph - N/A   Clear
4:52 PM 100.0 °F 101.8 °F 62.1 °F 29% 29.67 in 10.0 mi West 13.8 mph 18.4 mph N/A   Clear
5:52 PM 98.1 °F 101.2 °F 64.9 °F 34% 29.67 in 10.0 mi NW 11.5 mph - N/A   Clear
6:52 PM 96.1 °F 98.8 °F 64.9 °F 36% 29.68 in 10.0 mi North 6.9 mph - N/A   Clear
7:52 PM 90.0 °F 93.6 °F 68.0 °F 48% 29.69 in 10.0 mi North 3.5 mph - N/A   Clear
8:52 PM 82.0 °F 83.4 °F 64.0 °F 54% 29.70 in 10.0 mi NE 8.1 mph - N/A   Clear
9:52 PM 84.0 °F 85.4 °F 64.0 °F 51% 29.73 in 10.0 mi ENE 10.4 mph - N/A   Clear
10:52 PM 82.9 °F 85.0 °F 66.0 °F 56% 29.73 in 10.0 mi ENE 10.4 mph - N/A   Clear
11:52 PM 80.1 °F 81.7 °F 64.0 °F 58% 29.75 in 10.0 mi East 9.2 mph - N/A   Clear